Location: Foligno
(42.9600°N, 12.7050°E)
Time: 21:02:06
(UTC+01:00)

ISS - Pass Details

Date: 12 July 2018
Orbit: 402 x 409 km, 51.6° (Epoch: 13 November)

Event Time Altitude Azimuth Distance (km) Brightness Sun altitude
Exits shadow 02:54:18 30° 307° (NW) 777 -2.4 -21.1°
Maximum altitude 02:55:05 34° 337° (NNW) 706 -2.3 -21.1°
Drops below altitude 10° 02:58:11 10° 45° (NE) 1,495 0.1 -20.8°
Enters shadow 03:54:50 -69° 251° (WSW) 12,292 3.6 -15.3°
